datetime,flow
1939-07-01,50.0
1939-07-02,50.0
1939-07-03,50.0
1939-07-04,50.0
1939-07-05,50.0
1939-07-06,50.0
1939-07-07,50.0
1939-07-08,50.0
1939-07-09,50.0
1939-07-10,50.0
1939-07-11,50.0
1939-07-12,50.0
1939-07-13,50.0
1939-07-14,50.0
1939-07-15,50.0
1939-07-16,50.0
1939-07-17,33.0
1939-07-18,32.0
1939-07-19,27.0
1939-07-20,22.0
1939-07-21,21.0
1939-07-22,20.0
1939-07-23,19.0
1939-07-24,18.0
1939-07-25,17.0
1939-07-26,18.0
1939-07-27,18.0
1939-07-28,19.0
1939-07-29,23.0
1939-07-30,27.0
1939-07-31,23.0
1939-08-01,21.0
1939-08-02,19.0
1939-08-03,19.0
1939-08-04,18.0
1939-08-05,18.0
1939-08-06,17.0
1939-08-07,21.0
1939-08-08,18.0
1939-08-09,16.0
1939-08-10,15.0
1939-08-11,14.0
1939-08-12,14.0
1939-08-13,13.0
1939-08-14,13.0
1939-08-15,16.0
1939-08-16,14.0
1939-08-17,13.0
1939-08-18,11.0
1939-08-19,11.0
1939-08-20,10.0
1939-08-21,11.0
1939-08-22,11.0
1939-08-23,10.0
1939-08-24,9.7
1939-08-25,11.0
1939-08-26,10.0
1939-08-27,11.0
1939-08-28,12.0
1939-08-29,16.0
1939-08-30,15.0
1939-08-31,13.0
1939-09-01,11.0
1939-09-02,9.4
1939-09-03,8.2
1939-09-04,8.2
1939-09-05,9.7
1939-09-06,12.0
1939-09-07,18.0
1939-09-08,18.0
1939-09-09,15.0
1939-09-10,14.0
1939-09-11,15.0
1939-09-12,14.0
1939-09-13,30.0
1939-09-14,42.0
1939-09-15,34.0
1939-09-16,30.0
1939-09-17,26.0
1939-09-18,24.0
1939-09-19,22.0
1939-09-20,20.0
1939-09-21,19.0
1939-09-22,20.0
1939-09-23,20.0
1939-09-24,19.0
1939-09-25,22.0
1939-09-26,22.0
1939-09-27,19.0
1939-09-28,21.0
1939-09-29,21.0
1939-09-30,18.0
1939-10-01,18.0
1939-10-02,19.0
1939-10-03,19.0
1939-10-04,21.0
1939-10-05,20.0
1939-10-06,20.0
1939-10-07,19.0
1939-10-08,19.0
1939-10-09,19.0
1939-10-10,17.0
1939-10-11,17.0
1939-10-12,17.0
1939-10-13,17.0
1939-10-14,16.0
1939-10-15,16.0
1939-10-16,15.0
1939-10-17,15.0
1939-10-18,15.0
1939-10-19,14.0
1939-10-20,14.0
1939-10-21,13.0
1939-10-22,13.0
1939-10-23,13.0
1939-10-24,13.0
1939-10-25,13.0
1939-10-26,12.0
1939-10-27,13.0
1939-10-28,14.0
1939-10-29,13.0
1939-10-30,13.0
1939-10-31,12.0
1939-11-01,13.0
1939-11-02,12.0
1939-11-03,12.0
1939-11-04,12.0
1939-11-05,11.0
1939-11-06,11.0
1939-11-07,11.0
1939-11-08,11.0
1939-11-09,9.7
1939-11-10,7.0
1939-11-11,3.4
1939-11-12,3.6
1939-11-13,3.3
1939-11-14,3.4
1939-11-15,3.3
1939-11-16,3.7
1939-11-17,3.4
1939-11-18,3.6
1939-11-19,3.6
1939-11-20,3.6
1939-11-21,3.7
1939-11-22,4.0
1939-11-23,4.1
1939-11-24,4.1
1939-11-25,4.1
1939-11-26,4.2
1939-11-27,4.3
1939-11-28,4.2
1939-11-29,3.8
1939-11-30,3.7
1939-12-01,4.0
1939-12-02,4.0
1939-12-03,4.0
1939-12-04,4.0
1939-12-05,4.0
1939-12-06,4.0
1939-12-07,4.0
1939-12-08,4.0
1939-12-09,4.0
1939-12-10,4.0
1939-12-11,4.0
1939-12-12,4.0
1939-12-13,4.0
1939-12-14,4.0
1939-12-15,4.0
1939-12-16,4.0
1939-12-17,4.0
1939-12-18,4.0
1939-12-19,4.0
1939-12-20,4.0
1939-12-21,4.0
1939-12-22,4.0
1939-12-23,4.0
1939-12-24,4.0
1939-12-25,4.0
1939-12-26,4.0
1939-12-27,4.0
1939-12-28,4.0
1939-12-29,4.0
1939-12-30,4.0
1939-12-31,4.0
1940-01-01,3.7
1940-01-02,3.7
1940-01-03,3.7
1940-01-04,3.7
1940-01-05,3.7
1940-01-06,3.7
1940-01-07,3.7
1940-01-08,3.7
1940-01-09,3.7
1940-01-10,3.7
1940-01-11,3.7
1940-01-12,3.7
1940-01-13,3.7
1940-01-14,3.7
1940-01-15,3.7
1940-01-16,3.7
1940-01-17,3.7
1940-01-18,3.7
1940-01-19,3.7
1940-01-20,3.7
1940-01-21,3.7
1940-01-22,3.7
1940-01-23,3.7
1940-01-24,3.7
1940-01-25,3.7
1940-01-26,3.7
1940-01-27,3.7
1940-01-28,3.7
1940-01-29,3.7
1940-01-30,3.7
1940-01-31,3.7
1940-02-01,4.5
1940-02-02,4.5
1940-02-03,4.5
1940-02-04,4.5
1940-02-05,4.5
1940-02-06,4.5
1940-02-07,4.5
1940-02-08,4.5
1940-02-09,4.5
1940-02-10,4.5
1940-02-11,4.5
1940-02-12,4.5
1940-02-13,4.5
1940-02-14,4.5
1940-02-15,4.5
1940-02-16,4.5
1940-02-17,4.5
1940-02-18,4.5
1940-02-19,4.5
1940-02-20,4.5
1940-02-21,4.5
1940-02-22,4.5
1940-02-23,4.5
1940-02-24,4.5
1940-02-25,4.5
1940-02-26,4.5
1940-02-27,4.5
1940-02-28,4.5
1940-02-29,4.5
1940-03-01,5.4
1940-03-02,5.4
1940-03-03,5.4
1940-03-04,5.4
1940-03-05,5.4
1940-03-06,5.4
1940-03-07,5.4
1940-03-08,5.4
1940-03-09,5.4
1940-03-10,5.4
1940-03-11,5.4
1940-03-12,5.4
1940-03-13,5.4
1940-03-14,5.4
1940-03-15,5.4
1940-03-16,5.4
1940-03-17,5.4
1940-03-18,5.4
1940-03-19,5.4
1940-03-20,5.4
1940-03-21,5.4
1940-03-22,5.4
1940-03-23,5.4
1940-03-24,5.4
1940-03-25,5.4
1940-03-26,5.4
1940-03-27,5.4
1940-03-28,5.4
1940-03-29,5.4
1940-03-30,5.4
1940-03-31,5.4
1940-04-01,5.2
1940-04-02,5.4
1940-04-03,5.4
1940-04-04,5.2
1940-04-05,5.0
1940-04-06,5.0
1940-04-07,5.4
1940-04-08,5.2
1940-04-09,5.2
1940-04-10,5.0
1940-04-11,5.0
1940-04-12,5.3
1940-04-13,5.4
1940-04-14,6.4
1940-04-15,8.2
1940-04-16,9.4
1940-04-17,10.0
1940-04-18,11.0
1940-04-19,15.0
1940-04-20,21.0
1940-04-21,30.0
1940-04-22,36.0
1940-04-23,42.0
1940-04-24,43.0
1940-04-25,58.0
1940-04-26,72.0
1940-04-27,54.0
1940-04-28,42.0
1940-04-29,36.0
1940-04-30,30.0
1940-05-01,29.0
1940-05-02,39.0
1940-05-03,63.0
1940-05-04,83.0
1940-05-05,85.0
1940-05-06,85.0
1940-05-07,94.0
1940-05-08,114.0
1940-05-09,170.0
1940-05-10,227.0
1940-05-11,265.0
1940-05-12,298.0
1940-05-13,301.0
1940-05-14,244.0
1940-05-15,268.0
1940-05-16,295.0
1940-05-17,259.0
1940-05-18,205.0
1940-05-19,183.0
1940-05-20,165.0
1940-05-21,157.0
1940-05-22,139.0
1940-05-23,152.0
1940-05-24,157.0
1940-05-25,141.0
1940-05-26,167.0
1940-05-27,170.0
1940-05-28,157.0
1940-05-29,139.0
1940-05-30,122.0
1940-05-31,126.0
1940-06-01,119.0
1940-06-02,122.0
1940-06-03,112.0
1940-06-04,96.0
1940-06-05,96.0
1940-06-06,78.0
1940-06-07,68.0
1940-06-08,71.0
1940-06-09,61.0
1940-06-10,56.0
1940-06-11,56.0
1940-06-12,57.0
1940-06-13,57.0
1940-06-14,58.0
1940-06-15,61.0
1940-06-16,57.0
1940-06-17,53.0
1940-06-18,51.0
1940-06-19,48.0
1940-06-20,47.0
1940-06-21,44.0
1940-06-22,42.0
1940-06-23,40.0
1940-06-24,38.0
1940-06-25,41.0
1940-06-26,38.0
1940-06-27,34.0
1940-06-28,33.0
1940-06-29,28.0
1940-06-30,27.0
1940-07-01,34.0
1940-07-02,33.0
1940-07-03,27.0
1940-07-04,24.0
1940-07-05,23.0
1940-07-06,20.0
1940-07-07,20.0
1940-07-08,19.0
1940-07-09,17.0
1940-07-10,16.0
1940-07-11,15.0
1940-07-12,15.0
1940-07-13,15.0
1940-07-14,13.0
1940-07-15,13.0
1940-07-16,17.0
1940-07-17,18.0
1940-07-18,17.0
1940-07-19,18.0
1940-07-20,15.0
1940-07-21,13.0
1940-07-22,12.0
1940-07-23,11.0
1940-07-24,10.0
1940-07-25,9.1
1940-07-26,8.8
1940-07-27,8.2
1940-07-28,7.6
1940-07-29,7.3
1940-07-30,7.9
1940-07-31,7.9
1940-08-01,7.0
1940-08-02,6.6
1940-08-03,6.4
1940-08-04,6.6
1940-08-05,6.2
1940-08-06,6.4
1940-08-07,7.0
1940-08-08,7.3
1940-08-09,6.4
1940-08-10,6.4
1940-08-11,6.0
1940-08-12,4.8
1940-08-13,4.6
1940-08-14,4.7
1940-08-15,4.8
1940-08-16,5.0
1940-08-17,5.2
1940-08-18,5.0
1940-08-19,5.2
1940-08-20,6.0
1940-08-21,6.4
1940-08-22,6.6
1940-08-23,7.9
1940-08-24,9.7
1940-08-25,10.0
1940-08-26,12.0
1940-08-27,10.0
1940-08-28,7.9
1940-08-29,6.4
1940-08-30,6.0
1940-08-31,5.2
1940-09-01,5.4
1940-09-02,5.2
1940-09-03,6.6
1940-09-04,11.0
1940-09-05,15.0
1940-09-06,13.0
1940-09-07,11.0
1940-09-08,11.0
1940-09-09,11.0
1940-09-10,11.0
1940-09-11,11.0
1940-09-12,11.0
1940-09-13,12.0
1940-09-14,13.0
1940-09-15,13.0
1940-09-16,12.0
1940-09-17,12.0
1940-09-18,12.0
1940-09-19,16.0
1940-09-20,21.0
1940-09-21,28.0
1940-09-22,24.0
1940-09-23,22.0
1940-09-24,22.0
1940-09-25,21.0
1940-09-26,22.0
1940-09-27,20.0
1940-09-28,39.0
1940-09-29,46.0
1940-09-30,42.0
1940-10-01,39.0
1940-10-02,36.0
1940-10-03,38.0
1940-10-04,32.0
1940-10-05,31.0
1940-10-06,27.0
1940-10-07,25.0
1940-10-08,24.0
1940-10-09,30.0
1940-10-10,28.0
1940-10-11,29.0
1940-10-12,30.0
1940-10-13,27.0
1940-10-14,24.0
1940-10-15,25.0
1940-10-16,21.0
1940-10-17,20.0
1940-10-18,20.0
1940-10-19,19.0
1940-10-20,19.0
1940-10-21,19.0
1940-10-22,18.0
1940-10-23,18.0
1940-10-24,17.0
1940-10-25,17.0
1940-10-26,17.0
1940-10-27,19.0
1940-10-28,19.0
1940-10-29,18.0
1940-10-30,22.0
1940-10-31,18.0
1940-11-01,19.0
1940-11-02,19.0
1940-11-03,18.0
1940-11-04,16.0
1940-11-05,18.0
1940-11-06,17.0
1940-11-07,19.0
1940-11-08,17.0
1940-11-09,16.0
1940-11-10,15.0
1940-11-11,14.0
1940-11-12,13.0
1940-11-13,12.0
1940-11-14,13.0
1940-11-15,13.0
1940-11-16,14.0
1940-11-17,14.0
1940-11-18,14.0
1940-11-19,13.0
1940-11-20,13.0
1940-11-21,14.0
1940-11-22,14.0
1940-11-23,13.0
1940-11-24,13.0
1940-11-25,12.0
1940-11-26,13.0
1940-11-27,12.0
1940-11-28,12.0
1940-11-29,12.0
1940-11-30,13.0
1940-12-01,9.5
1940-12-02,9.5
1940-12-03,9.5
1940-12-04,9.5
1940-12-05,9.5
1940-12-06,9.5
1940-12-07,9.5
1940-12-08,9.5
1940-12-09,9.5
1940-12-10,9.5
1940-12-11,9.5
1940-12-12,9.5
1940-12-13,9.5
1940-12-14,9.5
1940-12-15,9.5
1940-12-16,9.5
1940-12-17,9.5
1940-12-18,9.5
1940-12-19,9.5
1940-12-20,9.5
1940-12-21,9.5
1940-12-22,9.5
1940-12-23,9.5
1940-12-24,9.5
1940-12-25,9.5
1940-12-26,9.5
1940-12-27,9.5
1940-12-28,9.5
1940-12-29,9.5
1940-12-30,9.5
1940-12-31,9.5
1941-01-01,6.0
1941-01-02,6.0
1941-01-03,6.0
1941-01-04,6.0
1941-01-05,6.0
1941-01-06,6.0
1941-01-07,6.0
1941-01-08,6.0
1941-01-09,6.0
1941-01-10,6.0
1941-01-11,6.0
1941-01-12,6.0
1941-01-13,6.0
1941-01-14,6.0
1941-01-15,6.0
1941-01-16,6.0
1941-01-17,6.0
1941-01-18,6.0
1941-01-19,6.0
1941-01-20,6.0
1941-01-21,6.0
1941-01-22,6.0
1941-01-23,6.0
1941-01-24,6.0
1941-01-25,6.0
1941-01-26,6.0
1941-01-27,6.0
1941-01-28,6.0
1941-01-29,6.0
1941-01-30,6.0
1941-01-31,6.0
1941-02-01,6.0
1941-02-02,6.0
1941-02-03,6.0
1941-02-04,6.0
1941-02-05,6.0
1941-02-06,6.0
1941-02-07,6.0
1941-02-08,6.0
1941-02-09,6.0
1941-02-10,6.0
1941-02-11,6.0
1941-02-12,6.0
1941-02-13,6.0
1941-02-14,6.0
1941-02-15,6.0
1941-02-16,6.0
1941-02-17,6.0
1941-02-18,6.0
1941-02-19,6.0
1941-02-20,6.0
1941-02-21,6.0
1941-02-22,6.0
1941-02-23,6.0
1941-02-24,6.0
1941-02-25,6.0
1941-02-26,6.0
1941-02-27,6.0
1941-02-28,6.0
1941-03-01,7.2
1941-03-02,7.2
1941-03-03,7.2
1941-03-04,7.2
1941-03-05,7.2
1941-03-06,7.2
1941-03-07,7.2
1941-03-08,7.2
1941-03-09,7.2
1941-03-10,7.2
1941-03-11,7.2
1941-03-12,7.2
1941-03-13,7.2
1941-03-14,7.2
1941-03-15,7.2
1941-03-16,7.2
1941-03-17,7.2
1941-03-18,7.2
1941-03-19,7.2
1941-03-20,7.2
1941-03-21,7.2
1941-03-22,7.2
1941-03-23,7.2
1941-03-24,7.2
1941-03-25,7.2
1941-03-26,7.2
1941-03-27,7.2
1941-03-28,7.2
1941-03-29,7.2
1941-03-30,7.2
1941-03-31,7.2
1941-04-01,12.0
1941-04-02,12.0
1941-04-03,12.0
1941-04-04,12.0
1941-04-05,12.0
1941-04-06,12.0
1941-04-07,12.0
1941-04-08,12.0
1941-04-09,12.0
1941-04-10,12.0
1941-04-11,12.0
1941-04-12,12.0
1941-04-13,12.0
1941-04-14,12.0
1941-04-15,12.0
1941-04-16,12.0
1941-04-17,12.0
1941-04-18,12.0
1941-04-19,12.0
1941-04-20,12.0
1941-04-21,12.0
1941-04-22,12.0
1941-04-23,12.0
1941-04-24,12.0
1941-04-25,12.0
1941-04-26,12.0
1941-04-27,12.0
1941-04-28,12.0
1941-04-29,12.0
1941-04-30,12.0
1941-05-01,20.0
1941-05-02,25.0
1941-05-03,28.0
1941-05-04,30.0
1941-05-05,34.0
1941-05-06,37.0
1941-05-07,42.0
1941-05-08,56.0
1941-05-09,79.0
1941-05-10,112.0
1941-05-11,162.0
1941-05-12,254.0
1941-05-13,360.0
1941-05-14,384.0
1941-05-15,288.0
1941-05-16,205.0
1941-05-17,223.0
1941-05-18,299.0
1941-05-19,190.0
1941-05-20,170.0
1941-05-21,190.0
1941-05-22,229.0
1941-05-23,332.0
1941-05-24,360.0
1941-05-25,380.0
1941-05-26,400.0
1941-05-27,336.0
1941-05-28,254.0
1941-05-29,202.0
1941-05-30,199.0
1941-05-31,217.0
1941-06-01,226.0
1941-06-02,232.0
1941-06-03,260.0
1941-06-04,302.0
1941-06-05,241.0
1941-06-06,184.0
1941-06-07,182.0
1941-06-08,173.0
1941-06-09,176.0
1941-06-10,157.0
1941-06-11,179.0
1941-06-12,217.0
1941-06-13,214.0
1941-06-14,217.0
1941-06-15,211.0
1941-06-16,288.0
1941-06-17,316.0
1941-06-18,400.0
1941-06-19,332.0
1941-06-20,320.0
1941-06-21,340.0
1941-06-22,320.0
1941-06-23,316.0
1941-06-24,316.0
1941-06-25,336.0
1941-06-26,254.0
1941-06-27,202.0
1941-06-28,152.0
1941-06-29,124.0
1941-06-30,110.0
1941-07-01,131.0
1941-07-02,124.0
1941-07-03,100.0
1941-07-04,100.0
1941-07-05,108.0
1941-07-06,106.0
1941-07-07,106.0
1941-07-08,98.0
1941-07-09,94.0
1941-07-10,94.0
1941-07-11,100.0
1941-07-12,98.0
1941-07-13,85.0
1941-07-14,79.0
1941-07-15,79.0
1941-07-16,74.0
1941-07-17,68.0
1941-07-18,66.0
1941-07-19,90.0
1941-07-20,136.0
1941-07-21,96.0
1941-07-22,78.0
1941-07-23,71.0
1941-07-24,72.0
1941-07-25,71.0
1941-07-26,72.0
1941-07-27,68.0
1941-07-28,48.0
1941-07-29,50.0
1941-07-30,48.0
1941-07-31,46.0
1941-08-01,43.0
1941-08-02,40.0
1941-08-03,40.0
1941-08-04,39.0
1941-08-05,39.0
1941-08-06,42.0
1941-08-07,51.0
1941-08-08,60.0
1941-08-09,50.0
1941-08-10,58.0
1941-08-11,60.0
1941-08-12,45.0
1941-08-13,39.0
1941-08-14,35.0
1941-08-15,36.0
1941-08-16,39.0
1941-08-17,38.0
1941-08-18,37.0
1941-08-19,32.0
1941-08-20,31.0
1941-08-21,32.0
1941-08-22,45.0
1941-08-23,36.0
1941-08-24,36.0
1941-08-25,64.0
1941-08-26,60.0
1941-08-27,42.0
1941-08-28,37.0
1941-08-29,32.0
1941-08-30,57.0
1941-08-31,47.0
1941-09-01,41.0
1941-09-02,34.0
1941-09-03,32.0
1941-09-04,34.0
1941-09-05,32.0
1941-09-06,27.0
1941-09-07,26.0
1941-09-08,25.0
1941-09-09,24.0
1941-09-10,22.0
1941-09-11,21.0
1941-09-12,19.0
1941-09-13,19.0
1941-09-14,20.0
1941-09-15,19.0
1941-09-16,18.0
1941-09-17,17.0
1941-09-18,17.0
1941-09-19,23.0
1941-09-20,19.0
1941-09-21,20.0
1941-09-22,22.0
1941-09-23,25.0
1941-09-24,27.0
1941-09-25,33.0
1941-09-26,38.0
1941-09-27,32.0
1941-09-28,28.0
1941-09-29,27.0
1941-09-30,24.0
1941-10-01,24.0
1941-10-02,29.0
1941-10-03,31.0
1941-10-04,40.0
1941-10-05,38.0
1941-10-06,30.0
1941-10-07,29.0
1941-10-08,28.0
1941-10-09,21.0
1941-10-10,24.0
1941-10-11,26.0
1941-10-12,31.0
1941-10-13,35.0
1941-10-14,34.0
1941-10-15,29.0
1941-10-16,27.0
1941-10-17,25.0
1941-10-18,23.0
1941-10-19,24.0
1941-10-20,28.0
1941-10-21,31.0
1941-10-22,28.0
1941-10-23,31.0
1941-10-24,29.0
1941-10-25,31.0
1941-10-26,30.0
1941-10-27,24.0
1941-10-28,26.0
1941-10-29,27.0
1941-10-30,25.0
1941-10-31,19.0
1941-11-01,28.0
1941-11-02,23.0
1941-11-03,21.0
1941-11-04,22.0
1941-11-05,19.0
1941-11-06,22.0
1941-11-07,14.0
1941-11-08,21.0
1941-11-09,21.0
1941-11-10,18.0
1941-11-11,16.0
1941-11-12,17.0
1941-11-13,15.0
1941-11-14,17.0
1941-11-15,16.0
1941-11-16,15.0
1941-11-17,15.0
1941-11-18,15.0
1941-11-19,14.0
1941-11-20,12.0
1941-11-21,11.0
1941-11-22,11.0
1941-11-23,12.0
1941-11-24,12.0
1941-11-25,13.0
1941-11-26,14.0
1941-11-27,15.0
1941-11-28,14.0
1941-11-29,14.0
1941-11-30,13.0
1941-12-01,12.0
1941-12-02,12.0
1941-12-03,12.0
1941-12-04,12.0
1941-12-05,12.0
1941-12-06,12.0
1941-12-07,12.0
1941-12-08,12.0
1941-12-09,12.0
1941-12-10,12.0
1941-12-11,12.0
1941-12-12,12.0
1941-12-13,12.0
1941-12-14,12.0
1941-12-15,12.0
1941-12-16,12.0
1941-12-17,12.0
1941-12-18,12.0
1941-12-19,12.0
1941-12-20,12.0
1941-12-21,12.0
1941-12-22,12.0
1941-12-23,12.0
1941-12-24,12.0
1941-12-25,12.0
1941-12-26,12.0
1941-12-27,12.0
1941-12-28,12.0
1941-12-29,12.0
1941-12-30,12.0
1941-12-31,12.0
1942-01-01,8.0
1942-01-02,8.0
1942-01-03,8.0
1942-01-04,8.0
1942-01-05,8.0
1942-01-06,8.0
1942-01-07,8.0
1942-01-08,8.0
1942-01-09,8.0
1942-01-10,8.0
1942-01-11,8.0
1942-01-12,8.0
1942-01-13,8.0
1942-01-14,8.0
1942-01-15,8.0
1942-01-16,8.0
1942-01-17,8.0
1942-01-18,8.0
1942-01-19,8.0
1942-01-20,8.0
1942-01-21,8.0
1942-01-22,8.0
1942-01-23,8.0
1942-01-24,8.0
1942-01-25,8.0
1942-01-26,8.0
1942-01-27,8.0
1942-01-28,8.0
1942-01-29,8.0
1942-01-30,8.0
1942-01-31,8.0
1942-02-01,6.0
1942-02-02,6.0
1942-02-03,6.0
1942-02-04,6.0
1942-02-05,6.0
1942-02-06,6.0
1942-02-07,6.0
1942-02-08,6.0
1942-02-09,6.0
1942-02-10,6.0
1942-02-11,6.0
1942-02-12,6.0
1942-02-13,6.0
1942-02-14,6.0
1942-02-15,6.0
1942-02-16,6.0
1942-02-17,6.0
1942-02-18,6.0
1942-02-19,6.0
1942-02-20,6.0
1942-02-21,6.0
1942-02-22,6.0
1942-02-23,6.0
1942-02-24,6.0
1942-02-25,6.0
1942-02-26,6.0
1942-02-27,6.0
1942-02-28,6.0
1942-03-01,6.0
1942-03-02,6.0
1942-03-03,6.0
1942-03-04,6.0
1942-03-05,6.0
1942-03-06,6.0
1942-03-07,6.0
1942-03-08,6.0
1942-03-09,6.0
1942-03-10,6.0
1942-03-11,5.6
1942-03-12,5.8
1942-03-13,5.6
1942-03-14,5.4
1942-03-15,5.2
1942-03-16,5.2
1942-03-17,5.4
1942-03-18,5.8
1942-03-19,5.4
1942-03-20,5.2
1942-03-21,5.4
1942-03-22,5.8
1942-03-23,6.2
1942-03-24,6.4
1942-03-25,6.0
1942-03-26,5.8
1942-03-27,5.6
1942-03-28,5.8
1942-03-29,6.0
1942-03-30,6.4
1942-03-31,6.8
1942-04-01,7.6
1942-04-02,8.0
1942-04-03,8.6
1942-04-04,8.2
1942-04-05,8.0
1942-04-06,8.6
1942-04-07,9.6
1942-04-08,10.0
1942-04-09,11.0
1942-04-10,12.0
1942-04-11,13.0
1942-04-12,13.0
1942-04-13,14.0
1942-04-14,14.0
1942-04-15,14.0
1942-04-16,13.0
1942-04-17,13.0
1942-04-18,13.0
1942-04-19,13.0
1942-04-20,13.0
1942-04-21,13.0
1942-04-22,13.0
1942-04-23,14.0
1942-04-24,14.0
1942-04-25,14.0
1942-04-26,14.0
1942-04-27,14.0
1942-04-28,13.0
1942-04-29,13.0
1942-04-30,13.0
1942-05-01,13.0
1942-05-02,14.0
1942-05-03,15.0
1942-05-04,16.0
1942-05-05,17.0
1942-05-06,17.0
1942-05-07,26.0
1942-05-08,36.0
1942-05-09,48.0
1942-05-10,64.0
1942-05-11,70.0
1942-05-12,59.0
1942-05-13,44.0
1942-05-14,43.0
1942-05-15,49.0
1942-05-16,52.0
1942-05-17,40.0
1942-05-18,41.0
1942-05-19,45.0
1942-05-20,59.0
1942-05-21,104.0
1942-05-22,150.0
1942-05-23,204.0
1942-05-24,278.0
1942-05-25,306.0
1942-05-26,415.0
1942-05-27,400.0
1942-05-28,314.0
1942-05-29,288.0
1942-05-30,229.0
1942-05-31,198.0
1942-06-01,219.0
1942-06-02,260.0
1942-06-03,303.0
1942-06-04,306.0
1942-06-05,256.0
1942-06-06,314.0
1942-06-07,374.0
1942-06-08,377.0
1942-06-09,317.0
1942-06-10,336.0
1942-06-11,351.0
1942-06-12,292.0
1942-06-13,213.0
1942-06-14,210.0
1942-06-15,198.0
1942-06-16,216.0
1942-06-17,210.0
1942-06-18,236.0
1942-06-19,242.0
1942-06-20,201.0
1942-06-21,168.0
1942-06-22,161.0
1942-06-23,157.0
1942-06-24,164.0
1942-06-25,159.0
1942-06-26,155.0
1942-06-27,130.0
1942-06-28,119.0
1942-06-29,101.0
1942-06-30,90.0
1942-07-01,94.0
1942-07-02,95.0
1942-07-03,99.0
1942-07-04,97.0
1942-07-05,99.0
1942-07-06,119.0
1942-07-07,110.0
1942-07-08,122.0
1942-07-09,119.0
1942-07-10,115.0
1942-07-11,101.0
1942-07-12,90.0
1942-07-13,84.0
1942-07-14,80.0
1942-07-15,80.0
1942-07-16,101.0
1942-07-17,92.0
1942-07-18,97.0
1942-07-19,84.0
1942-07-20,66.0
1942-07-21,64.0
1942-07-22,59.0
1942-07-23,56.0
1942-07-24,52.0
1942-07-25,50.0
1942-07-26,47.0
1942-07-27,50.0
1942-07-28,50.0
1942-07-29,47.0
1942-07-30,40.0
1942-07-31,37.0
1942-08-01,35.0
1942-08-02,34.0
1942-08-03,43.0
1942-08-04,40.0
1942-08-05,37.0
1942-08-06,36.0
1942-08-07,34.0
1942-08-08,33.0
1942-08-09,29.0
1942-08-10,23.0
1942-08-11,25.0
1942-08-12,39.0
1942-08-13,29.0
1942-08-14,23.0
1942-08-15,21.0
1942-08-16,21.0
1942-08-17,19.0
1942-08-18,19.0
1942-08-19,19.0
1942-08-20,18.0
1942-08-21,18.0
1942-08-22,17.0
1942-08-23,20.0
1942-08-24,24.0
1942-08-25,35.0
1942-08-26,28.0
1942-08-27,21.0
1942-08-28,17.0
1942-08-29,17.0
1942-08-30,21.0
1942-08-31,17.0
1942-09-01,15.0
1942-09-02,15.0
1942-09-03,13.0
1942-09-04,14.0
1942-09-05,14.0
1942-09-06,14.0
1942-09-07,14.0
1942-09-08,13.0
1942-09-09,12.0
1942-09-10,13.0
1942-09-11,17.0
1942-09-12,24.0
1942-09-13,20.0
1942-09-14,17.0
1942-09-15,15.0
1942-09-16,14.0
1942-09-17,13.0
1942-09-18,12.0
1942-09-19,12.0
1942-09-20,12.0
1942-09-21,12.0
1942-09-22,12.0
1942-09-23,12.0
1942-09-24,12.0
1942-09-25,12.0
1942-09-26,11.0
1942-09-27,11.0
1942-09-28,11.0
1942-09-29,10.0
1942-09-30,10.0
1942-10-01,10.0
1942-10-02,10.0
1942-10-03,9.8
1942-10-04,9.8
1942-10-05,9.8
1942-10-06,9.8
1942-10-07,9.5
1942-10-08,9.5
1942-10-09,9.5
1942-10-10,9.2
1942-10-11,9.8
1942-10-12,14.0
1942-10-13,15.0
1942-10-14,15.0
1942-10-15,13.0
1942-10-16,13.0
1942-10-17,14.0
1942-10-18,13.0
1942-10-19,12.0
1942-10-20,12.0
1942-10-21,11.0
1942-10-22,11.0
1942-10-23,12.0
1942-10-24,11.0
1942-10-25,9.8
1942-10-26,9.8
1942-10-27,9.8
1942-10-28,9.8
1942-10-29,10.0
1942-10-30,13.0
1942-10-31,15.0
1942-11-01,12.0
1942-11-02,11.0
1942-11-03,11.0
1942-11-04,11.0
1942-11-05,11.0
1942-11-06,11.0
1942-11-07,11.0
1942-11-08,11.0
1942-11-09,11.0
1942-11-10,11.0
1942-11-11,11.0
1942-11-12,11.0
1942-11-13,11.0
1942-11-14,11.0
1942-11-15,11.0
1942-11-16,11.0
1942-11-17,11.0
1942-11-18,11.0
1942-11-19,11.0
1942-11-20,11.0
1942-11-21,11.0
1942-11-22,11.0
1942-11-23,11.0
1942-11-24,11.0
1942-11-25,11.0
1942-11-26,11.0
1942-11-27,11.0
1942-11-28,11.0
1942-11-29,11.0
1942-11-30,11.0
1942-12-01,10.0
1942-12-02,10.0
1942-12-03,10.0
1942-12-04,10.0
1942-12-05,10.0
1942-12-06,10.0
1942-12-07,10.0
1942-12-08,10.0
1942-12-09,10.0
1942-12-10,10.0
1942-12-11,10.0
1942-12-12,10.0
1942-12-13,10.0
1942-12-14,10.0
1942-12-15,10.0
1942-12-16,10.0
1942-12-17,10.0
1942-12-18,10.0
1942-12-19,10.0
1942-12-20,10.0
1942-12-21,10.0
1942-12-22,10.0
1942-12-23,10.0
1942-12-24,10.0
1942-12-25,10.0
1942-12-26,10.0
1942-12-27,10.0
1942-12-28,10.0
1942-12-29,10.0
1942-12-30,10.0
1942-12-31,10.0
1943-01-01,9.0
1943-01-02,9.0
1943-01-03,9.0
1943-01-04,9.0
1943-01-05,9.0
1943-01-06,9.0
1943-01-07,9.0
1943-01-08,9.0
1943-01-09,9.0
1943-01-10,9.0
1943-01-11,9.0
1943-01-12,9.0
1943-01-13,9.0
1943-01-14,9.0
1943-01-15,9.0
1943-01-16,9.0
1943-01-17,9.0
1943-01-18,9.0
1943-01-19,9.0
1943-01-20,9.0
1943-01-21,9.0
1943-01-22,9.0
1943-01-23,9.0
1943-01-24,9.0
1943-01-25,9.0
1943-01-26,9.0
1943-01-27,9.0
1943-01-28,9.0
1943-01-29,9.0
1943-01-30,9.0
1943-01-31,9.0
1943-02-01,9.0
1943-02-02,9.0
1943-02-03,9.0
1943-02-04,9.0
1943-02-05,9.0
1943-02-06,9.0
1943-02-07,9.0
1943-02-08,9.0
1943-02-09,9.0
1943-02-10,9.0
1943-02-11,9.0
1943-02-12,9.0
1943-02-13,9.0
1943-02-14,9.0
1943-02-15,9.0
1943-02-16,9.0
1943-02-17,9.0
1943-02-18,9.0
1943-02-19,9.0
1943-02-20,9.0
1943-02-21,9.0
1943-02-22,9.0
1943-02-23,9.0
1943-02-24,9.0
1943-02-25,9.0
1943-02-26,9.0
1943-02-27,9.0
1943-02-28,9.0
1943-03-01,15.0
1943-03-02,15.0
1943-03-03,15.0
1943-03-04,15.0
1943-03-05,15.0
1943-03-06,15.0
1943-03-07,15.0
1943-03-08,15.0
1943-03-09,15.0
1943-03-10,15.0
1943-03-11,15.0
1943-03-12,15.0
1943-03-13,15.0
1943-03-14,15.0
1943-03-15,15.0
1943-03-16,15.0
1943-03-17,15.0
1943-03-18,15.0
1943-03-19,15.0
1943-03-20,15.0
1943-03-21,15.0
1943-03-22,15.0
1943-03-23,15.0
1943-03-24,15.0
1943-03-25,15.0
1943-03-26,15.0
1943-03-27,15.0
1943-03-28,15.0
1943-03-29,15.0
1943-03-30,15.0
1943-03-31,15.0
1943-04-01,70.0
1943-04-02,70.0
1943-04-03,70.0
1943-04-04,70.0
1943-04-05,70.0
1943-04-06,70.0
1943-04-07,70.0
1943-04-08,70.0
1943-04-09,70.0
1943-04-10,70.0
1943-04-11,70.0
1943-04-12,70.0
1943-04-13,70.0
1943-04-14,70.0
1943-04-15,70.0
1943-04-16,70.0
1943-04-17,70.0
1943-04-18,70.0
1943-04-19,70.0
1943-04-20,70.0
1943-04-21,70.0
1943-04-22,70.0
1943-04-23,70.0
1943-04-24,70.0
1943-04-25,70.0
1943-04-26,70.0
1943-04-27,70.0
1943-04-28,117.0
1943-04-29,115.0
1943-04-30,134.0
1943-05-01,175.0
1943-05-02,207.0
1943-05-03,222.0
1943-05-04,232.0
1943-05-05,159.0
1943-05-06,138.0
1943-05-07,115.0
1943-05-08,68.0
1943-05-09,79.0
1943-05-10,101.0
1943-05-11,95.0
1943-05-12,77.0
1943-05-13,71.0
1943-05-14,69.0
1943-05-15,70.0
1943-05-16,64.0
1943-05-17,57.0
1943-05-18,59.0
1943-05-19,60.0
1943-05-20,57.0
1943-05-21,62.0
1943-05-22,68.0
1943-05-23,95.0
1943-05-24,115.0
1943-05-25,142.0
1943-05-26,161.0
1943-05-27,187.0
1943-05-28,236.0
1943-05-29,249.0
1943-05-30,216.0
1943-05-31,201.0
1943-06-01,216.0
1943-06-02,182.0
1943-06-03,138.0
1943-06-04,126.0
1943-06-05,112.0
1943-06-06,108.0
1943-06-07,97.0
1943-06-08,103.0
1943-06-09,115.0
1943-06-10,134.0
1943-06-11,140.0
1943-06-12,142.0
1943-06-13,136.0
1943-06-14,122.0
1943-06-15,113.0
1943-06-16,94.0
1943-06-17,90.0
1943-06-18,117.0
1943-06-19,144.0
1943-06-20,164.0
1943-06-21,164.0
1943-06-22,159.0
1943-06-23,164.0
1943-06-24,175.0
1943-06-25,232.0
1943-06-26,219.0
1943-06-27,180.0
1943-06-28,157.0
1943-06-29,140.0
1943-06-30,138.0
1943-07-01,128.0
1943-07-02,112.0
1943-07-03,101.0
1943-07-04,94.0
1943-07-05,87.0
1943-07-06,85.0
1943-07-07,82.0
1943-07-08,79.0
1943-07-09,73.0
1943-07-10,73.0
1943-07-11,71.0
1943-07-12,68.0
1943-07-13,65.0
1943-07-14,61.0
1943-07-15,62.0
1943-07-16,88.0
1943-07-17,62.0
1943-07-18,56.0
1943-07-19,50.0
1943-07-20,49.0
1943-07-21,58.0
1943-07-22,53.0
1943-07-23,49.0
1943-07-24,47.0
1943-07-25,46.0
1943-07-26,43.0
1943-07-27,43.0
1943-07-28,43.0
1943-07-29,44.0
1943-07-30,44.0
1943-07-31,43.0
1943-08-01,49.0
1943-08-02,69.0
1943-08-03,53.0
1943-08-04,46.0
1943-08-05,41.0
1943-08-06,41.0
1943-08-07,43.0
1943-08-08,51.0
1943-08-09,42.0
1943-08-10,38.0
1943-08-11,36.0
1943-08-12,39.0
1943-08-13,36.0
1943-08-14,36.0
1943-08-15,39.0
1943-08-16,40.0
1943-08-17,35.0
1943-08-18,43.0
1943-08-19,41.0
1943-08-20,36.0
1943-08-21,32.0
1943-08-22,31.0
1943-08-23,29.0
1943-08-24,26.0
1943-08-25,29.0
1943-08-26,28.0